DW9987 Weather Reports


Display with metric or nautical units.
time (UTC)temp
F
wind
direction
speed
MPH
gust
MPH
rain 1hr
in
rain 24hr
in
rain mn
in
humidity
%
barometer
mb
20260506073058 43 5 0.0 0.0 0.00 0.06 0.00 66 1011.6
20260506071552 44 5 0.0 0.0 0.00 0.06 0.00 65 1011.5
20260506070106 45 5 0.0 3.0 0.00 0.06 0.00 63 1011.4
20260506061541 46 349 0.0 0.0 0.00 0.06 0.00 67 1011.3
20260506044525 51 355 1.0 6.0 0.00 0.06 0.06 53 1010.8
20260506043023 51 5 2.0 5.0 0.00 0.06 0.06 54 1010.7
20260506041524 50 5 1.0 4.0 0.00 0.06 0.06 57 1011.0
20260506040021 50 360 0.0 0.0 0.00 0.06 0.06 57 1010.9
20260506034521 50 360 0.0 0.0 0.00 0.06 0.06 60 1011.0
20260506033019 50 360 0.0 0.0 0.00 0.06 0.06 58 1010.7
20260506031521 51 360 0.0 0.0 0.00 0.06 0.06 58 1010.7
20260506030019 52 360 0.0 0.0 0.00 0.06 0.06 57 1010.3
20260506024515 52 360 0.0 2.0 0.00 0.06 0.06 52 1010.1
20260506023015 52 360 0.0 2.0 0.00 0.06 0.06 52 1010.2
20260506021514 52 360 0.0 0.0 0.00 0.06 0.06 50 1010.2
20260506020013 53 360 0.0 1.0 0.00 0.06 0.06 49 1009.9
20260506014514 53 360 0.0 2.0 0.00 0.06 0.06 48 1009.9
20260506013013 53 355 0.0 3.0 0.00 0.06 0.06 47 1009.4
20260506011512 53 5 0.0 3.0 0.00 0.06 0.06 46 1009.3
20260506010012 54 5 1.0 4.0 0.00 0.07 0.06 44 1009.1
20260506004511 54 345 0.0 3.0 0.00 0.07 0.06 44 1009.1
20260506003010 54 5 2.0 5.0 0.00 0.07 0.06 42 1008.8
20260506001510 54 355 1.0 6.0 0.00 0.07 0.06 42 1008.7
20260506000009 54 9 0.0 4.0 0.00 0.17 0.06 42 1008.9
20260505234514 54 355 2.0 8.0 0.00 0.17 0.06 39 1008.9
20260505233011 55 11 3.0 8.0 0.00 0.17 0.06 39 1008.8
20260505231511 55 345 4.0 9.0 0.00 0.17 0.06 38 1008.9
20260505230007 55 342 4.0 7.0 0.00 0.17 0.06 38 1008.8
20260505224507 55 333 0.0 6.0 0.00 0.17 0.06 40 1009.1
20260505223010 56 118 3.0 9.0 0.00 0.17 0.06 38 1009.1
20260505221505 56 54 1.0 7.0 0.00 0.17 0.06 36 1009.1
20260505220008 56 232 2.0 8.0 0.00 0.17 0.06 36 1009.1
20260505214507 56 117 1.0 8.0 0.00 0.17 0.06 36 1009.3
20260505213004 56 323 1.0 7.0 0.00 0.17 0.06 36 1009.3
20260505211504 56 338 3.0 10.0 0.00 0.17 0.06 34 1009.5
20260505210004 56 360 2.0 8.0 0.00 0.17 0.06 35 1009.4
20260505204503 55 355 1.0 6.0 0.00 0.17 0.06 36 1009.4
20260505203001 55 314 3.0 9.0 0.00 0.17 0.06 35 1009.5
20260505201609 55 342 1.0 8.0 0.00 0.17 0.06 38 1009.7
20260505200107 55 5 2.0 7.0 0.00 0.17 0.06 38 1009.7
20260505194608 55 12 1.0 4.0 0.00 0.17 0.06 38 1009.7
20260505193058 56 355 4.0 9.0 0.00 0.17 0.06 38 1009.5
20260505191558 56 355 1.0 6.0 0.00 0.17 0.06 43 1009.7
20260505184557 55 295 2.0 10.0 0.00 0.17 0.06 42 1009.8
20260505183059 55 86 2.0 9.0 0.00 0.17 0.06 43 1009.8
20260505181556 56 17 2.0 11.0 0.00 0.17 0.06 43 1009.8
20260505180055 56 338 2.0 8.0 0.00 0.17 0.06 40 1009.7
20260505174555 56 321 1.0 11.0 0.01 0.17 0.06 42 1009.6
20260505173054 56 54 2.0 8.0 0.01 0.17 0.06 42 1009.4
20260505171554 55 171 2.0 8.0 0.01 0.17 0.06 41 1009.3
20260505170052 55 5 4.0 11.0 0.01 0.17 0.06 41 1009.3
20260505164604 56 32 5.0 12.0 0.00 0.16 0.05 42 1009.0
20260505163053 55 12 4.0 11.0 0.00 0.16 0.05 43 1009.1
20260505161554 55 22 3.0 8.0 0.00 0.16 0.05 46 1009.4
20260505153050 52 18 1.0 4.0 0.00 0.16 0.05 64 1009.0
20260505151548 51 360 1.0 5.0 0.00 0.16 0.05 68 1008.9
20260505124538 45 17 0.0 4.0 0.03 0.14 0.03 80 1008.8
20260505123033 46 360 2.0 6.0 0.02 0.13 0.02 76 1009.1
20260505121530 47 5 2.0 7.0 0.02 0.13 0.02 72 1008.7
20260505120026 48 343 2.0 8.0 0.00 0.11 0.00 69 1009.0
20260505114521 49 9 5.0 9.0 0.00 0.11 0.00 61 1009.1
20260505113017 50 12 3.0 9.0 0.00 0.11 0.00 56 1007.8
20260505111515 51 360 5.0 9.0 0.00 0.11 0.00 57 1007.8
20260505101511 52 5 0.0 3.0 0.00 0.11 0.00 60 1006.7
20260505100004 52 5 4.0 7.0 0.00 0.11 0.00 57 1006.3
20260505094505 52 355 2.0 7.0 0.00 0.11 0.00 59 1005.9
20260505093103 52 15 1.0 4.0 0.00 0.11 0.00 60 1005.7
20260505091613 52 348 0.0 6.0 0.00 0.11 0.00 60 1005.9
20260505090057 53 298 0.0 6.0 0.00 0.11 0.00 59 1006.2
20260505084554 53 332 0.0 5.0 0.00 0.11 0.00 58 1005.3
20260505083051 53 314 1.0 4.0 0.00 0.11 0.00 57 1004.9
20260505081552 53 17 2.0 7.0 0.00 0.11 0.00 56 1004.3
20260505080051 54 360 0.0 5.0 0.00 0.11 0.00 55 1003.7
20260505074542 54 11 1.0 5.0 0.00 0.11 0.00 54 1003.6